#timestamp,LO_Frequency,Hit,StdDev 
1619658015.2,286046998.3,N
1619658035.1,286047000.0,N
1619658036.0,286047000.0,N
1619658055.8,286046999.8,N
1619658075.7,286047000.0,N
1619658095.5,286046998.3,N
1619658115.3,286047001.2,N
1619658135.2,286047002.8,N
1619658155.0,286047002.3,N
1619658155.9,286047002.3,N
1619658175.7,286047002.8,N
1619658195.6,286047002.1,N
1619658215.4,286047003.8,N
1619658235.3,286047003.0,N
1619658255.1,286047009.9,Y
1619658275.8,286047011.9,P
1619658295.7,286047008.7,N
1619658315.5,286047006.8,N
1619658335.4,286047006.5,N
1619658355.2,286047007.5,N
1619658375.0,286047007.6,N
1619658375.9,286047007.6,N
1619658395.8,286047004.6,N
1619658415.6,286047005.0,N
1619658435.5,286047005.0,N
1619658455.3,286047004.9,N
1619658475.1,286047006.7,N
1619658495.9,286047006.5,N
1619658515.7,286047004.5,N
1619658535.5,286047005.6,N
1619658555.4,286047006.0,N
1619658575.2,286047005.0,N
1619658595.1,286047007.6,Y
1619658596.0,286047007.6,P
1619658615.8,286047000.8,N
1619658635.6,286046998.9,N
1619658655.5,286046999.5,N
1619658675.3,286046997.4,N
1619658695.1,286046997.6,N
1619658715.9,286046998.0,N
1619658735.7,286046997.1,N
1619658755.6,286046998.8,N
1619658775.4,286046999.4,N
1619658795.2,286046998.4,N
1619658815.1,286046997.8,N
1619658816.0,286046997.8,N
1619658835.8,286046995.1,N
1619658855.7,286046995.2,N
1619658875.5,286046995.5,N
1619658895.3,286046996.7,N
1619658915.2,286046997.3,N
1619658935.9,286046997.5,N
1619658955.7,286046994.9,N
1619658975.6,286046996.0,N
1619658995.4,286046993.7,N
1619659015.3,286046996.6,N
1619659035.1,286046996.8,N
1619659036.0,286046996.8,N
1619659055.8,286046997.7,N
1619659075.7,286046996.7,N
1619659095.5,286046997.0,N
1619659115.3,286046998.1,N
1619659135.2,286046996.8,N
1619659155.0,286046998.5,N
1619659155.9,286046998.5,N
1619659175.8,286046998.1,N
1619659195.6,286046999.6,N
1619659215.4,286047000.7,N
1619659235.3,286046998.6,N
1619659255.1,286046999.4,N
1619659275.9,286046999.2,N
1619659295.7,286046997.1,N
1619659315.5,286046996.7,N
1619659335.4,286046996.9,N
1619659355.2,286046999.3,N
1619659375.0,286046999.4,N
1619659375.9,286046999.4,N
1619659395.8,286046998.1,N
1619659415.6,286047001.2,N
1619659435.5,286047001.0,N
1619659455.3,286047000.5,N
1619659475.1,286047000.4,N
1619659495.9,286047000.5,N
1619659515.7,286047002.7,N
1619659535.5,286046999.7,N
1619659555.4,286047002.7,N
1619659575.2,286047000.0,N
1619659595.1,286047000.8,N
1619659596.0,286047000.8,N
1619659615.8,286046999.5,N
1619659635.6,286046998.4,N
1619659655.5,286046996.5,N
1619659675.3,286046999.2,N
1619659695.2,286046998.9,N
1619659715.9,286046998.2,N
1619659735.7,286046998.7,N
1619659755.6,286046998.2,N
1619659775.4,286046998.5,N
1619659795.2,286047001.2,N
1619659815.1,286046998.8,N
1619659816.0,286046998.8,N
1619659835.8,286046998.6,N
1619659855.7,286046998.3,N
1619659875.5,286046998.6,N
1619659895.3,286047000.8,N
1619659915.2,286046999.7,N
1619659935.0,286047002.3,N
1619659935.9,286047002.3,N
1619659955.8,286047001.9,N
1619659975.6,286046999.9,N
1619659995.4,286047000.4,N
1619660015.3,286047002.2,N
1619660035.1,286047001.9,N
1619660055.8,286047001.8,N
1619660075.7,286046999.9,N
1619660095.5,286046999.7,N
1619660115.4,286047002.0,N
1619660135.2,286047000.4,N
1619660155.0,286047002.7,N
1619660155.9,286047002.7,N
1619660175.8,286047002.2,N
1619660195.6,286047004.4,N
1619660215.5,286047002.3,N
1619660235.3,286047001.6,N
1619660255.1,286047003.7,N
1619660275.9,286047003.2,N
1619660295.7,286047004.0,N
1619660315.5,286047003.9,N
1619660335.4,286047003.2,N
1619660355.2,286047001.8,N
1619660375.1,286047001.6,N
1619660376.0,286047001.6,N
1619660395.8,286047001.5,N
1619660415.6,286047004.2,Y
1619660435.5,286047002.6,P
1619660455.3,286047001.5,P
1619660475.1,286047001.7,P
1619660495.9,286047003.5,Y
1619660515.7,286047003.9,P
1619660535.6,286047001.9,N
1619660555.4,286047002.2,N
1619660575.2,286047002.0,N
1619660595.1,286047002.3,N
1619660596.0,286047002.3,Y
1619660615.8,286046998.8,P
1619660635.7,286047000.7,N
1619660655.5,286047000.4,N
1619660675.3,286047000.7,N
1619660695.2,286047000.6,N
1619660715.0,286046999.8,N
1619660715.9,286046999.8,N
1619660735.7,286047002.6,N
1619660755.6,286047000.2,N
1619660775.4,286047000.5,N
1619660795.3,286047000.5,N
1619660815.1,286047002.0,N
1619660816.0,286047002.0,N
1619660835.8,286047001.4,N
1619660855.7,286047003.1,Y
1619660875.5,286047001.7,P
1619660895.4,286047004.3,P
1619660915.2,286047001.9,N
1619660935.0,286047003.7,N
1619660935.9,286047003.7,N
1619660955.8,286047004.2,Y
1619660975.6,286047002.7,P
1619660995.4,286047000.9,P
1619661015.3,286046998.1,N
1619661035.1,286046998.6,N
1619661055.9,286046998.5,N
1619661075.7,286047001.1,N
1619661095.5,286046997.0,N
1619661115.4,286046998.8,N
1619661135.2,286046999.5,N
1619661155.1,286046999.4,N
1619661156.0,286046999.4,N
1619661175.8,286046998.3,N
1619661195.6,286046998.1,N
1619661215.5,286046998.2,N
1619661235.3,286046998.7,N
1619661255.1,286047000.9,N
1619661275.9,286047000.0,N
1619661295.7,286046999.9,N
1619661315.6,286047000.1,N
1619661335.4,286047000.1,N
1619661355.2,286047002.6,N
1619661375.1,286046999.8,N
1619661376.0,286046999.8,N
1619661395.8,286047001.0,N
1619661415.6,286047001.2,N
1619661435.5,286047000.4,N
1619661455.3,286047000.7,N
1619661475.2,286047001.0,N
1619661495.9,286047000.6,N
1619661515.7,286047000.2,N
1619661535.6,286046999.0,N
1619661555.4,286046998.9,N
1619661575.2,286046998.2,N
1619661595.1,286046998.6,N
1619661596.0,286046998.6,N
